Find Starlink 11516

NORAD ID: 62522 Int'l Des: 2025-004 Owner: SPXS Country: US Constellation: starlink operational
LEOCIRCULAR

当前视图

正在加载3D地球...

About Starlink 11516

Starlink 11516 (NORAD 62522) is a starlink constellation satellite (v2 mini d2c) launched Jan 8, 2025 by SPXS of US. It operates in LEO, CIRCULAR orbit with a mass of 960.00 kg.

关于 Starlink 11516

正在加载描述...

即将过境

Passes for default location (London). Set your location on the main map for personalized predictions.

高度历史

Loading altitude history...

两行轨道根数

1 62522U 25004M 26170.44804869 .00131459 00000-0 10087-2 0 9998
2 62522 43.0010 177.2611 0002819 262.6357 97.4190 15.70912021 83215
Epoch: Jun 19, 2026 • Age: 19 hours

当前状态

高度 355.8 km
速度 7.70 km/s
星下点 -4.07°S, 0.59°E
发射日期 Jan 8, 2025
运行时间 1.4 years
类型 internet

技术详情

分类 Payload
质量 960.00 kg
干质量 910.00 kg
总质量 960.00 kg
长度 0.30 m
直径 4.10 m
跨度 29.00 m
形状 Box + pan
制造商 SPXS
平台类型 Starlink V2MD
阶段状态 In Orbit
所有者/国家 SPXS/US

Most Searched